Madison, WI

3:48 PM CDT on September 26, 2017 (GMT -0500)
Dane County Regional-Truax

Weather History for KMSN - August, 2014

Change the Weather History Date:

Monday, August 18, 2014

  Actual Average Record
Temperature  
Mean Temperature 72 °F 69 °F  
Max Temperature 84 °F 79 °F 101 °F (1936)
Min Temperature 59 °F 59 °F 41 °F (1977)
Degree Days  
Heating Degree Days 0 1  
Month to date heating degree days 4 15  
Since 1 June heating degree days 26 85  
Since 1 July heating degree days 17 25  
Cooling Degree Days 7 5  
Month to date cooling degree days 90 102  
Year to date cooling degree days 466 458  
Since 1 June cooling degree days 415 428  
Growing Degree Days 22 (Base 50)    
Moisture  
Dew Point 62 °F    
Average Humidity 74    
Maximum Humidity 90    
Minimum Humidity 58    
Precipitation  
Precipitation 0.00 in 0.15 in 3.39 in (2007)
Month to date precipitation 2.69 2.55  
Year to date precipitation 25.07 23.10  
Snow  
Snow 0.00 in 0.00 in 0.00 in ()
Month to date snowfall 0.0 0.0  
Since 1 June snowfall 0.0 0.0  
Since 1 July snowfall 0.0 0.0  
Snow Depth 0.00 in    
Sea Level Pressure  
Sea Level Pressure 29.84 in    
Wind  
Wind Speed 8 mph (SSE)    
Max Wind Speed 17 mph    
Max Gust Speed 22 mph    
Visibility 9 miles    
Events      
T = Trace of Precipitation, MM = Missing Value Source: NWS Daily Summary

Daily Weather History Graph

Daily Weather History Graph

Search for Another Location

Airport or City:

Trip Planner

Search our weather history database for the weather conditions in past years. The results will help you decide how hot, cold, wet, or windy it might be!

Date:

Astronomy

Aug. 18, 2014 Rise Set
Actual Time 6:06 AM CDT 7:55 PM CDT
Civil Twilight 5:35 AM CDT 8:25 PM CDT
Nautical Twilight 4:58 AM CDT 9:02 PM CDT
Astronomical Twilight 4:18 AM CDT 9:42 PM CDT
Moon 12:11 AM CDT (8/18) 3:00 PM CDT (8/18)
Length of Visible Light 14h 49m
Length of Day
13h 49m
Last Quarter, 38% of the Moon is Illuminated
Aug 18
Last Quarter
Aug 25
New
Sep 2
First Quarter
Sep 8
Full
Sep 15
Last Quarter

Hourly Weather History & Observations

Time (CDT) Temp. Heat Index Dew Point Humidity Pressure Visibility Wind Dir Wind Speed Gust Speed Precip Events Conditions
12:53 AM 63.0 °F - 57.9 °F 84% 29.93 in 10.0 mi ESE 5.8 mph - N/A   Clear
1:53 AM 60.8 °F - 57.2 °F 88% 29.93 in 10.0 mi ESE 5.8 mph - N/A   Clear
2:53 AM 62.1 °F - 57.0 °F 84% 29.93 in 10.0 mi South 6.9 mph - N/A   Clear
3:53 AM 60.1 °F - 57.0 °F 90% 29.91 in 10.0 mi ESE 4.6 mph - N/A   Clear
4:24 AM 60.1 °F - 57.0 °F 90% 29.92 in 10.0 mi East 4.6 mph - N/A   Scattered Clouds
4:32 AM 60.1 °F - 57.0 °F 90% 29.92 in 10.0 mi ESE 5.8 mph - N/A   Mostly Cloudy
4:53 AM 60.1 °F - 57.0 °F 90% 29.91 in 9.0 mi ESE 5.8 mph - N/A   Overcast
5:53 AM 60.1 °F - 57.0 °F 90% 29.91 in 5.0 mi ESE 4.6 mph - N/A   Overcast
6:06 AM 60.1 °F - 57.0 °F 90% 29.92 in 6.0 mi SE 5.8 mph - N/A   Overcast
6:53 AM 61.0 °F - 57.9 °F 90% 29.91 in 6.0 mi SSE 9.2 mph - N/A   Mostly Cloudy
7:01 AM 61.0 °F - 57.9 °F 90% 29.91 in 7.0 mi South 11.5 mph - N/A   Mostly Cloudy
7:50 AM 62.6 °F - 59.0 °F 88% 29.91 in 6.0 mi SSE 6.9 mph - N/A   Mostly Cloudy
7:53 AM 63.0 °F - 59.0 °F 87% 29.90 in 6.0 mi SSE 6.9 mph - N/A   Mostly Cloudy
8:53 AM 66.0 °F - 59.0 °F 78% 29.91 in 10.0 mi South 4.6 mph - N/A   Overcast
9:06 AM 66.0 °F - 59.0 °F 78% 29.91 in 10.0 mi SSW 3.5 mph - N/A   Overcast
9:11 AM 66.0 °F - 60.1 °F 81% 29.90 in 10.0 mi South 3.5 mph - N/A   Overcast
9:53 AM 70.0 °F - 61.0 °F 73% 29.88 in 10.0 mi South 10.4 mph - N/A   Mostly Cloudy
10:53 AM 73.0 °F - 64.9 °F 76% 29.87 in 10.0 mi South 8.1 mph - N/A   Scattered Clouds
11:53 AM 77.0 °F - 66.0 °F 69% 29.85 in 10.0 mi South 11.5 mph - N/A   Scattered Clouds
12:53 PM 79.0 °F - 66.0 °F 64% 29.83 in 10.0 mi Variable 4.6 mph - N/A   Scattered Clouds
1:35 PM 81.0 °F 83.3 °F 66.9 °F 62% 29.83 in 10.0 mi South 6.9 mph - N/A   Mostly Cloudy
1:53 PM 82.0 °F 84.5 °F 66.9 °F 60% 29.81 in 10.0 mi South 13.8 mph 18.4 mph N/A   Mostly Cloudy
2:24 PM 82.0 °F 84.5 °F 66.9 °F 60% 29.82 in 10.0 mi SW 8.1 mph - N/A   Mostly Cloudy
2:53 PM 82.0 °F 84.1 °F 66.0 °F 58% 29.80 in 10.0 mi SW 11.5 mph - N/A   Mostly Cloudy
3:53 PM 81.0 °F 83.0 °F 66.0 °F 60% 29.78 in 10.0 mi SSW 9.2 mph - N/A   Overcast
4:53 PM 82.0 °F 84.5 °F 66.9 °F 60% 29.76 in 10.0 mi SSW 9.2 mph 18.4 mph N/A   Overcast
5:53 PM 82.0 °F 84.5 °F 66.9 °F 60% 29.74 in 10.0 mi SW 11.5 mph - N/A   Mostly Cloudy
6:53 PM 81.0 °F 83.3 °F 66.9 °F 62% 29.74 in 10.0 mi SSW 6.9 mph 17.3 mph N/A   Mostly Cloudy
7:53 PM 79.0 °F - 66.9 °F 66% 29.74 in 10.0 mi South 9.2 mph - N/A   Mostly Cloudy
8:53 PM 77.0 °F - 66.9 °F 71% 29.74 in 10.0 mi South 6.9 mph - N/A   Mostly Cloudy
9:53 PM 72.0 °F - 64.0 °F 76% 29.76 in 10.0 mi ENE 10.4 mph - N/A   Mostly Cloudy
10:53 PM 69.8 °F - 62.6 °F 78% 29.76 in 10.0 mi ESE 6.9 mph - N/A   Overcast
11:09 PM 71.1 °F - 62.1 °F 73% 29.74 in 10.0 mi SE 11.5 mph - N/A   Overcast
11:34 PM 71.1 °F - 62.1 °F 73% 29.74 in 10.0 mi SE 9.2 mph - N/A   Overcast
11:53 PM 72.0 °F - 63.0 °F 73% 29.71 in 10.0 mi South 10.4 mph - N/A   Overcast